Overview Statistics Trail Chart Weather Telemetry Raw packets
 

This is the latest recevied weather packets stored in our database for station/object N9DMT-13. If no packets are shown the sender has not sent any weather packets the latest 10 day(s).

<< 2 3 4 5 6 7 8 >>
Time Temp. Humidity Pressure Rain* Wind** Luminosity Snow
1777851361 21.67° C 32% 972.3 hPa 0 mm - - -
1777851060 21.67° C 32% 972.1 hPa 0 mm - - -
1777850759 21.67° C 31% 972 hPa 0 mm - - -
1777850459 22.22° C 32% 971.9 hPa 0 mm - - -
1777850158 22.78° C 32% 972 hPa 0 mm - - -
1777849857 23.33° C 31% 972.1 hPa 0 mm - - -
1777849556 23.33° C 31% 972 hPa 0 mm - - -
1777849256 23.33° C 30% 971.8 hPa 0 mm - - -
1777848955 23.33° C 30% 971.8 hPa 0 mm - - -
1777848654 22.78° C 31% 971.8 hPa 0 mm - - -
1777848353 23.33° C 31% 971.8 hPa 0 mm - - -
1777848052 23.33° C 32% 971.9 hPa 0 mm - - -
1777847751 23.89° C 31% 971.9 hPa 0 mm - - -
1777847450 23.89° C 31% 971.9 hPa 0 mm - - -
1777847149 23.89° C 31% 971.9 hPa 0 mm - - -
1777846848 23.89° C 32% 971.8 hPa 0 mm - - -
1777846546 23.89° C 31% 972 hPa 0 mm - - -
1777846245 23.33° C 32% 971.9 hPa 0 mm - - -
1777845944 23.89° C 31% 971.9 hPa 0 mm - - -
1777845643 24.44° C 31% 972 hPa 0 mm - - -
1777845342 23.89° C 33% 971.7 hPa 0 mm - - -
1777845041 23.89° C 34% 971.9 hPa 0 mm - - -
1777844741 23.89° C 33% 972.1 hPa 0 mm - - -
1777844440 23.89° C 33% 972 hPa 0 mm - - -
1777844139 23.33° C 33% 971.9 hPa 0 mm - - -

* Rain latest hour (hover to see other rain measurements)
** Current wind speed in m/s (hover to see current wind gust speed)